Flag for Germany Weather past 2 weeks in Kassel, Hesse, Germany

Now
50 °F

Passing clouds.


Feels Like: 45 °F
Forecast: 41 / 48 °F
Wind: 14 mph from Southwest

Location: Fritzlar Airport

Current Time: Dec 23, 2014 at 2:01:42 AM

Latest Report: Dec 23, 2014 at 1:20 AM


Visibility: N/A

Pressure: 30.04 "Hg

Humidity: 82%

Dew point: 45 °F

Location of KasselLocation

Historic Weather in Kassel — Graph

°F

Kassel temperature yesterday

Maximum temperature yesterday: 48 °F (at 10:20 PM)
Minimum temperature yesterday: 45 °F (at 12:20 AM)
Average temperature yesterday: 46 °F

Past Weeks' High & Low Weather Summary

 TemperatureHumidityPressure
High55 °F (Dec 18, 8:20 PM)100% (Dec 8, 8:20 AM)30.39 "Hg (Dec 8, 8:20 AM)
Low27 °F (Dec 9, 12:20 AM)66% (Dec 8, 2:20 PM)29.47 "Hg (Dec 12, 4:20 PM)
Average40 °F87%29.97 "Hg
* Reported Dec 8 12:20 AM — Dec 23 12:20 AM, Kassel, Weather by CustomWeather, © 2014

Note: Actual official high and low records may vary slightly from our data, if they occured in-between our weather recording intervals... More about our weather records

Advertising

Kassel weather history for previous 24 hours

 ConditionsComfort  
Time TempWeatherWind HumidityBarometerVisibility
12:20 AM
Dec 23
48 °FPartly cloudy.16 mph87%30.04 "HgN/A
11:20 PM
Dec 22
48 °FPassing clouds.17 mph87%30.04 "Hg5 mi
10:20 PM48 °FPartly cloudy.15 mph87%30.04 "Hg4 mi
9:20 PM46 °FPartly cloudy.15 mph93%30.04 "Hg4 mi
8:20 PM46 °FPartly cloudy.15 mph93%30.04 "Hg4 mi
7:20 PM46 °FPartly cloudy.16 mph93%30.04 "Hg4 mi
6:20 PM46 °FPassing clouds.13 mph87%30.07 "Hg5 mi
5:20 PM46 °FPassing clouds.16 mph87%30.04 "Hg6 mi
4:20 PM46 °FPartly cloudy.17 mph87%30.07 "Hg6 mi
3:20 PM45 °FDrizzle. Broken clouds.13 mph93%30.07 "Hg5 mi
2:20 PM46 °FDrizzle. Partly sunny.13 mph87%30.07 "HgN/A
1:20 PM46 °FDrizzle. Broken clouds.18 mph87%30.04 "HgN/A
12:20 PM46 °FPartly sunny.14 mph82%30.07 "HgN/A
11:20 AM46 °FPartly sunny.16 mph82%30.09 "HgN/A
10:20 AM46 °FPartly sunny.13 mph82%30.09 "HgN/A
9:20 AM46 °FPartly sunny.12 mph82%30.09 "HgN/A
8:20 AM46 °FPassing clouds.12 mph82%30.09 "HgN/A
7:20 AM45 °FPassing clouds.13 mph87%30.07 "HgN/A
6:20 AM45 °FLight rain. Passing clouds.10 mph87%30.09 "HgN/A
5:20 AM45 °FPassing clouds.16 mph87%30.09 "HgN/A
4:20 AM45 °FPassing clouds.15 mph87%30.12 "HgN/A
3:20 AM45 °FPassing clouds.15 mph87%30.12 "HgN/A
2:20 AM45 °FPassing clouds.12 mph81%30.12 "HgN/A
Weather by CustomWeather, © 2014

See weather overviewHow to use our weather pages